Skip Page Navigation
NASA JPL Caltech
NASA Logo - Jet Propulsion Laboratory + View the NASA Portal
+ Center for Near-Earth Object Studies
JPL Home Earth Solar System Stars & Galaxies Technology
JPL Solar System Dynamics
BODIES ORBITS EPHEMERIDES TOOLS PHYSICAL DATA DISCOVERY FAQ SITE MAP
JPL Small-Body Database Browser
Search: [ help ]  
441567 (2008 UJ30)
Classification: Main-belt Asteroid          SPK-ID: 2441567
Ephemeris | Orbit Diagram | Orbital Elements | Mission Design | Physical Parameters | Discovery Circumstances ]

[ show orbit diagram ]
Orbital Elements at Epoch 2459000.5 (2020-May-31.0) TDB
Reference: JPL 18 (heliocentric ecliptic J2000)
 Element Value Uncertainty (1-sigma)   Units 
e .1205742697054199 6.0343e-08  
a 2.376631535216363 1.9203e-08 au
q 2.090070923498779 1.3889e-07 au
i 7.990171913495026 5.585e-06 deg
node 51.17873689439104 3.95e-05 deg
peri 319.0730268970249 4.549e-05 deg
M 84.7796884284584 2.0889e-05 deg
tp 2458685.340411025125
(2019-Jul-20.84041103)
7.7235e-05 TDB
period 1338.262196218101
3.66
1.622e-05
4.441e-08
d
yr
n .2690055812809717 3.2604e-09 deg/d
Q 2.663192146933946 2.1519e-08 au
  Orbit Determination Parameters
   # obs. used (total)      182  
   data-arc span      5629 days (15.41 yr)  
   first obs. used      2004-08-21  
   last obs. used      2020-01-19  
   planetary ephem.      DE431  
   SB-pert. ephem.      SB431-N16  
   condition code      0  
   norm. resid. RMS      .54368  
   source      ORB  
   producer      Otto Matic  
   solution date      2020-Feb-26 10:36:59  

Additional Information
 Earth MOID = 1.09814 au 
 Jupiter MOID = 2.80883 au 
 T_jup = 3.518 
[ show covariance matrix ]

Ephemeris | Orbit Diagram | Orbital Elements | Mission Design | Physical Parameters | Discovery Circumstances ]

Physical Parameter Table
Parameter Symbol Value Units Sigma Reference Notes
absolute magnitude H 17.2   n/a MPO456092  

441567 (2008 UJ30)          Discovered 2008-Oct-20 by Spacewatch at Kitt Peak
Reference: Last Updated: 2015-09-02
Ephemeris | Orbit Diagram | Orbital Elements | Mission Design | Physical Parameters | Discovery Circumstances ]
ABOUT SSD CREDITS/AWARDS PRIVACY/COPYRIGHT GLOSSARY LINKS
FirstGov 2020-Jul-15 00:04 UT
(server date/time)  
NASA Home Page
Site Manager:   Ryan S. Park
Webmaster  Alan B. Chamberlin